#timestamp,LO_Frequency,Hit,StdDev 
1635411615.7,286046993.5,N
1635411635.5,286046990.8,N
1635411655.3,286046990.8,N
1635411675.2,286046993.2,N
1635411695.0,286046993.5,N
1635411695.9,286046993.5,N
1635411715.8,286046992.0,N
1635411735.6,286046992.8,N
1635411755.4,286046994.1,N
1635411775.3,286046994.6,N
1635411795.1,286046993.1,N
1635411815.9,286046983.4,Y
1635411835.7,286046986.8,P
1635411855.5,286046989.9,P
1635411875.4,286046990.4,P
1635411895.2,286046992.1,Y
1635411915.0,286047002.1,P
1635411915.9,286047002.1,N
1635411935.8,286047001.8,N
1635411955.6,286047001.6,N
1635411975.5,286046998.7,N
1635411995.3,286046989.6,N
1635412015.1,286046980.5,Y
1635412035.9,286046982.7,P
1635412055.7,286046976.5,P
1635412075.5,286046971.6,P
1635412095.4,286046965.8,Y
1635412115.2,286046981.3,P
1635412135.1,286046979.3,P
1635412136.0,286046979.3,P
1635412155.8,286046978.8,Y
1635412205.7,286046989.5,E
1635412215.6,286046993.0,N
1635412235.4,286046999.6,P
1635412255.3,286046998.9,N
1635412275.1,286046999.1,N
1635412295.8,286046996.1,N
1635412315.7,286046998.3,N
1635412335.5,286046999.2,N
1635412355.4,286046995.1,N
1635412375.2,286046989.1,Y
1635412395.1,286046992.7,P
1635412396.0,286046992.7,P
1635412415.8,286046991.2,P
1635412435.6,286046992.5,Y
1635412455.5,286046995.2,P
1635412475.3,286046990.5,P
1635412495.2,286046987.1,P
1635412515.9,286046983.6,Y
1635412535.7,286046984.9,P
1635412555.6,286046986.2,P
1635412575.4,286046990.9,P
1635412595.3,286046985.3,Y
1635412615.1,286046991.7,P
1635412616.0,286046991.7,P
1635412635.8,286046985.3,P
1635412655.7,286046989.3,Y
1635412675.5,286047001.4,P
1635412695.4,286047002.0,N
1635412715.2,286046998.6,N
1635412735.0,286047002.8,N
1635412735.9,286047002.8,N
1635412755.8,286046999.2,N
1635412775.6,286047005.5,N
1635412795.4,286047008.2,N
1635412815.3,286047009.1,N
1635412835.1,286047012.3,N
1635412855.9,286047011.9,N
1635412875.7,286047007.9,N
1635412895.5,286047006.1,N
1635412915.4,286047006.2,N
1635412935.2,286047005.6,N
1635412955.0,286046996.5,N
1635412955.9,286046996.5,N
1635412975.8,286046992.7,N
1635412995.6,286046991.3,N
1635413015.5,286046985.1,N
1635413035.3,286046979.5,N
1635413055.1,286046981.1,N
1635413075.9,286046986.5,N
1635413095.7,286046988.2,N
1635413115.5,286046978.9,N
1635413135.4,286046974.5,N
1635413155.2,286046975.0,N
1635413175.1,286046972.2,N
1635413176.0,286046972.2,N
1635413195.8,286046970.4,N
1635413215.6,286046975.0,N
1635413235.5,286046975.8,N
1635413255.3,286046978.1,N
1635413275.1,286046978.1,N
1635413295.9,286046978.3,N
1635413315.7,286046976.8,N
1635413335.6,286046974.6,N
1635413355.4,286046977.9,N
1635413375.3,286046981.0,N
1635413395.1,286046982.0,N
1635413396.0,286046982.0,N
1635413415.8,286046976.3,N
1635413435.7,286046971.2,N
1635413455.5,286046967.9,Y
1635413475.3,286046979.8,P
1635413495.2,286046978.4,P
1635413515.0,286046976.6,P
1635413515.9,286046976.6,Y
1635413535.8,286047003.9,P
1635413555.6,286047003.0,N
1635413575.4,286047004.5,N
1635413595.3,286047006.3,N
1635413615.1,286047004.8,N
1635413635.8,286047006.0,N
1635413655.7,286047000.5,N
1635413675.5,286047000.5,N
1635413695.4,286046998.3,N
1635413715.2,286046994.4,N
1635413735.0,286046991.2,N
1635413735.9,286046991.2,N
1635413755.8,286046993.5,N
1635413775.6,286046992.6,N
1635413795.4,286046989.2,N
1635413815.3,286046993.1,N
1635413835.1,286046993.0,N
1635413855.9,286046993.2,N
1635413875.7,286046992.2,N
1635413895.5,286046990.5,N
1635413915.4,286046994.6,N
1635413935.2,286046992.0,N
1635413955.0,286046988.5,N
1635413956.0,286046988.5,N
1635413975.8,286046989.6,N
1635413995.6,286046984.0,N
1635414015.5,286046983.5,N
1635414035.3,286046981.4,N
1635414055.1,286046978.5,N
1635414075.9,286046977.2,N
1635414095.7,286046976.6,Y
1635414115.6,286046986.3,P
1635414135.4,286046983.8,P
1635414155.2,286046986.7,P
1635414175.1,286046985.5,Y
1635414176.0,286046985.5,P
1635414195.8,286046998.0,N
1635414215.6,286046992.0,N
1635414235.5,286046985.6,Y
1635414255.3,286046992.4,P
1635414275.2,286046991.3,P
1635414295.9,286046991.1,P
1635414315.7,286046987.0,Y
1635414335.6,286047001.1,P
1635414355.4,286047001.2,N
1635414375.3,286047000.4,N
1635414395.1,286047000.7,N
1635414396.0,286047000.7,N
1635414415.8,286046997.1,N
1635414435.7,286046996.1,N
1635414485.5,286046990.8,E
1635414495.4,286046996.0,N
1635414515.3,286046997.7,P
1635414535.1,286046999.6,N
1635414555.9,286046999.0,N
1635414575.7,286046996.6,N
1635414595.5,286046997.6,N
1635414615.4,286046995.8,Y
1635414635.2,286046997.0,P
1635414655.0,286046998.0,P
1635414656.0,286046998.0,P
1635414675.8,286046995.0,Y
1635414695.6,286046998.5,P
1635414715.5,286046997.7,P
1635414735.3,286046995.2,P
1635414755.1,286046990.3,Y
1635414775.9,286046994.3,P
1635414795.7,286046990.8,P
1635414815.6,286046991.5,P
1635414835.4,286046988.1,Y
1635414855.2,286046994.4,P
1635414875.1,286046994.1,P
1635414876.0,286046994.1,P
1635414895.8,286046993.3,Y
1635414915.6,286047000.9,P
1635414935.5,286046995.4,N
1635414955.3,286046991.7,N
1635414975.2,286046992.9,N
1635414995.9,286046993.2,N
1635415015.7,286046990.8,Y
1635415035.6,286046992.6,P
1635415055.4,286046991.3,P
1635415075.3,286046985.8,P
1635415095.1,286046986.2,Y
1635415096.0,286046986.2,P
1635415115.8,286046996.4,N
1635415135.7,286046993.7,N
1635415155.5,286046991.1,N
1635415175.3,286046985.8,Y
1635415195.2,286046996.8,P
